Regional Weather Roundup
Issued by NWS

Home | Current Version | Previous Version | Text Only | Print | Product List | Glossary Off
Versions: 1 2 3 4 5 6 7 8 9 10 11 12 13 14 15 16 17 18 19 20 21 22 23 24 25 26 27 28 29 30 31 32 33 34 35 36 37 38 39 40 41 42 43 44 45 46 47 48 49 50

432
ASUS43 KMPX 062101
RWRMN
WEATHER ROUNDUP FOR MINNESOTA
NATIONAL WEATHER SERVICE TWIN CITIES/CHANHASSEN MN
300 PM CST SAT FEB 06 2016


NOTE: "FAIR" INDICATES FEW OR NO CLOUDS BELOW 12,000 FEET WITH NO
SIGNIFICANT WEATHER AND/OR OBSTRUCTIONS TO VISIBILITY. N/A MEANS
CURRENT SKY AND/OR WEATHER CONDITIONS ARE NOT AVAILABLE.

MNZ060>063-068>070-062200-
   Twin Cities Metro

CITY           SKY/WX    TMP DP  RH WIND       PRES   REMARKS
TWIN CITIES    CLOUDY    36  26  67 S13G24    29.95F
ST PAUL        CLOUDY    34  27  75 S14       29.97F WCI  25
CRYSTAL        MOSUNNY   36  26  67 S15       29.92F
BLAINE         CLOUDY    37  28  70 S14G21    29.93F
LAKEVILLE      CLOUDY    34  27  75 S9G17     29.96F WCI  26
EDEN PRAIRIE   CLOUDY    34  26  72 S14       29.94F WCI  25
SOUTH ST PAUL  CLOUDY    35  28  75 S12       29.96F WCI  26
LAKE ELMO      FAIR      34  30  86 S13       29.97F WCI  25
$$
MNZ001>005-007-008-013>017-022>024-027-028-062200-
   Northwest Minnesota

CITY           SKY/WX    TMP DP  RH WIND       PRES   REMARKS
BEMIDJI        CLOUDY    35  25  67 S10       29.69F WCI  27
HALLOCK        CLOUDY    34  30  86 S15       29.59F WCI  24
ROSEAU         CLOUDY    32  27  80 S14       29.62F WCI  22
WARROAD        LGT SNOW  30  27  86 SE9       29.64F WCI  22
THIEF RVR FALL CLOUDY    34  27  75 S16       29.65F WCI  23
CROOKSTON      CLOUDY    36  30  80 S14       29.65F
FOSSTON        CLOUDY    34  27  75 S18       29.67F WCI  23
DETROIT LAKES  CLOUDY    36  30  80 SW12G17   29.72F
MOORHEAD       DRIZZLE   36  30  80 S10       29.70F
PARK RAPIDS    CLOUDY    37  25  61 SW12      29.72F
MAHNOMEN       FAIR      35  28  78 S17       29.69F WCI  24
$$
MNZ006-009>011-018-025>026-062200-
   North Central Minnesota

CITY           SKY/WX    TMP DP  RH WIND       PRES   REMARKS
BAUDETTE       LGT SNOW  32  25  75 SE8       29.66F VSB 1   WCI  25
FLAG ISLAND    LGT SNOW  28  23  80 SE7       29.66F WCI  21
INTL FALLS     CLOUDY    32  22  66 VRB6      29.73F WCI  26
WASKISH        LGT SNOW  34  28  80 SE6       29.69F WCI  29
LONGVILLE      CLOUDY    36  25  64 S9        29.74F
GRAND RAPIDS   CLOUDY    32  25  74 S13       29.76F WCI  22
CRANE LAKE     CLOUDY    30  19  64 SE6       29.78F WCI  24
ORR            CLOUDY    34  19  55 S8        29.72F WCI  27
COOK           CLOUDY    34  23  64 S8        29.76F WCI  27
WALKER         CLOUDY    35  24  64 S9        29.72F WCI  28
$$
MNZ012-019>021-037-062200-
   Northeast Minnesota

CITY           SKY/WX    TMP DP  RH WIND       PRES   REMARKS
DULUTH         CLOUDY    34  24  67 SW14      29.81F WCI  25
ELY            CLOUDY    34  21  60 S10       29.78F WCI  26
HIBBING        CLOUDY    34  23  64 S8        29.77F WCI  27
EVELETH        MOSUNNY   34  27  75 S12       29.78F WCI  25
DULUTH HARBOR  PTSUNNY   37  27  65 S13       29.86F
TWO HARBORS    CLOUDY    34  25  69 S7        29.82F WCI  28
SILVER BAY     PTSUNNY   32  23  69 S6        29.83F WCI  26
GRAND MARAIS     N/A     30  24  78 S8        29.90F WCI  22
G MARAIS ARPRT CLOUDY    23  19  86 S8        29.83F FOG     WCI  14
$$
MNZ029>031-032-039>041-046>048-054>057-064-062200-
   West Central Minnesota

CITY           SKY/WX    TMP DP  RH WIND       PRES   REMARKS
FERGUS FALLS   CLOUDY    37  28  70 S9        29.78F
WHEATON        CLOUDY    39  32  75 SW10      29.79S
MORRIS         CLOUDY    37  30  75 SW7       29.78F
ALEXANDRIA     PTSUNNY   38  26  62 SW16      29.77F
ELBOW LAKE     FAIR      35  30  81 W10       29.78S HAZE    WCI  28
WADENA         MOSUNNY   37  27  65 SW9       29.74S
GLENWOOD       CLOUDY    37  28  70 S14       29.80F
APPLETON       CLOUDY    39  28  65 SW15      29.80F
BENSON         CLOUDY    39  28  65 SW8       29.81F
ORTONVILLE     CLOUDY    39  27  60 SW14      29.79F
MADISON          N/A     39  28  65 SW16      29.81S
WILLMAR        FAIR      39  30  70 S6        29.85F
$$
MNZ033>034-036-042>043-049>051-058-059-062200-
   Central Minnesota

CITY           SKY/WX    TMP DP  RH WIND       PRES   REMARKS
ST CLOUD       CLOUDY    37  26  64 S13       29.85F
SAUK CENTRE    FAIR      36  27  70 S16G22    29.79F
PAYNESVILLE    CLOUDY    37  28  70 S13       29.84F
AITKIN         CLOUDY    37  23  56 S13       29.78F
PINE RIVER     MOSUNNY   36  27  69 SE9       29.79F
BRAINERD       CLOUDY    36  24  62 S15       29.79F
STAPLES        CLOUDY    37  25  60 S14       29.75F
LONG PRAIRIE   CLOUDY    36  27  69 S14G22    29.80F
LITTLE FALLS   CLOUDY    37  27  65 S8        29.82F
LITCHFIELD     PTSUNNY   37  28  70 S8        29.87F
BUFFALO        MOSUNNY   35  26  71 S13       29.90F WCI  26
MAPLE LAKE     PTSUNNY   37  29  73 S10       29.89F
$$
MNZ037-044-045-052-053-062200-
   East Central Minnesota

CITY           SKY/WX    TMP DP  RH WIND       PRES   REMARKS
PRINCETON      MOSUNNY   37  27  65 S12G21    29.88F
MORA           MOSUNNY   34  27  75 S12       29.89F WCI  25
CAMBRIDGE      MOSUNNY   39  27  60 S13       29.88F
RUSH CITY      CLOUDY    34  26  73 S13       29.90F WCI  25
MOOSE LAKE     CLOUDY    34  27  75 S12G18    29.83F WCI  25
HINCKLEY       FAIR      34  28  80 S12       29.88F WCI  25
CLOQUET        CLOUDY    36  25  64 S13G18    29.82F
MCGREGOR       CLOUDY    36  27  69 S10G17    29.81F
$$
MNZ071>073-080-081-089-090-097-098-062200-
   Southwest Minnesota

CITY           SKY/WX    TMP DP  RH WIND       PRES   REMARKS
MONTEVIDEO     CLOUDY    39  28  65 SW14      29.83F
GRANITE FALLS  CLOUDY    38  30  73 S16       29.86F
CANBY          CLOUDY    40  30  68 SW16G24   29.83F
MARSHALL       MOSUNNY   38  24  57 SW24      29.83F
REDWOOD FALLS  CLOUDY    36  26  67 SW20G25   29.88F
OLIVIA         CLOUDY    36  30  80 S14       29.86F
PIPESTONE        N/A     36  21  55 SW16      29.88F
WINDOM         MOSUNNY   36  27  69 S15G22    29.92F
WORTHINGTON    CLOUDY    34  25  69 S21G26    29.93F WCI  22
JACKSON        MOSUNNY   34  27  75 S17       29.95F WCI  23
TRACY          MOSUNNY   35  27  72 SW26G32   29.86F WCI  22
SLAYTON        PTSUNNY   32  26  80 S21       29.89F WCI  20
$$
MNZ065>067-074>077-082>085-091>093-062200-
   South Central Minnesota

CITY           SKY/WX    TMP DP  RH WIND       PRES   REMARKS
MANKATO        MOSUNNY   34  27  75 S17       29.96F WCI  23
NEW ULM        MOSUNNY   36  27  69 S15       29.91F
ST JAMES       MOSUNNY   36  28  75 S20       29.94F
FAIRMONT       MOSUNNY   34  27  75 S17       29.96F WCI  23
GLENCOE        CLOUDY    35  31  85 S9G16     29.91F WCI  27
FARIBAULT      PTSUNNY   34  27  75 S9G20     29.98F WCI  26
OWATONNA       CLOUDY    32  27  80 S18       29.99F WCI  20
WASECA         CLOUDY    32  28  86 S17       30.00F WCI  21
ALBERT LEA     SUNNY     32  27  80 S13G20    30.01F WCI  22
$$
MNZ078>079-086>088-094>096-062200-
   Southeast Minnesota

CITY           SKY/WX    TMP DP  RH WIND       PRES   REMARKS
ROCHESTER      CLOUDY    28  25  88 S18       30.03F FOG     WCI  15
RED WING       CLOUDY    34  25  69 SW9       30.01F WCI  26
STANTON        CLOUDY    35  28  74 S13G23    29.97F WCI  26
DODGE CENTER   MOSUNNY   30  27  86 S14G22    30.01F WCI  20
WINONA         CLOUDY    34  28  80 S3        30.07F
AUSTIN         CLOUDY    30  28  93 SW13      30.04S FOG     WCI  20
PRESTON        CLOUDY    28  24  87 S16       30.05F FOG     WCI  15
$$
ABBREVIATIONS USED IN REMARKS
   TC - TEMPERATURES IN CELSIUS
  WCI - WIND CHILL INDEX
   HX - HEAT INDEX
  VSB - VISIBILITY
$$




USA.gov is the U.S. government's official web portal to all federal, state and local government web resources and services.